ECHOSTAR 18

Last updated on Thu Jul 03 2025 00:02:47 GMT+0000 (Coordinated Universal Time)

1 41592U 16039B 25183.55445828 -.00000274 00000+0 00000+0 0 9992 2 41592 0.0188 27.7630 0001623 75.8259 315.4956 1.00272772 33112
UTC large
Height (km)
Speed (km/s)
/
Latitude / Longitude
Inclination (degrees)
Orbital Period (minutes)
Azimuth
Elevation
Range (km)
Doppler Factor

Next 0 passes for location: London (51.5072 / 0.1276)

Sorry there are no passes over London.